Погода в Касне

Россия / Смоленская область     55°23′52″N   34°19′08″E
темп.,
°C
ветер,
м/с
пор.,
м/с
влажн.,
%
обл.,
%
осадки,
мм/ч
давл.,
гПа
погр.,
м
18 мая, ср
ср1800:00+4ссз4129750 0.0 1011464
03:00+4ссз5129780 0.0 1013409
06:00+4ссз5129651 0.0 1014468
09:00+7ссз698044 0.0 1016727
12:00+11ссз686039 0.0 10171396
15:00+10ссз5767100 0.0 10171089
18:00+11ссз58585 0.0 10171719
21:00+6ссз34775 0.0 101976
19 мая, чт
чт1900:00+5з35848 0.0 101975
03:00+4з310905 0.0 1018186
06:00+6з5128081 0.0 1017383
09:00+9сз5963100 0.0 1017728
12:00+12сз5754100 0.0 10171284
15:00+13сз4755100 0.1 10161714
18:00+10ссв4578100 0.3 1017521
21:00+8сз378673 0.3 1018265
20 мая, пт
пт2000:00+5сз37955 0.0 1019160
03:00+2с36950 0.0 1020122
06:00+2св26880 0.0 1021165
09:00+8всв336390 0.0 1021660
12:00+10всв2253100 0.0 10201267
15:00+11всв1250100 0.0 10181441
18:00+11в1160100 0.0 10161017
21:00+7в1172100 0.1 101514
21 мая, сб
сб2100:00+6в257597 0.0 1014123
03:00+4всв3972100 0.0 1013202
06:00+4всв3975100 0.0 1013285
09:00+9в57585 0.0 1013797
12:00+12всв45455 0.0 10121661
15:00+13всв33415 0.0 10121891
18:00+12всв33458 0.0 10111774
21:00+7в22695 0.0 101227
22 мая, вс
вс2200:00+4в356685 0.0 101175
03:00+3в3876100 0.0 1012148
06:00+3всв387351 0.0 1012220
09:00+9всв46511 0.0 1011764
12:00+11св454164 0.0 10111867
15:00+12ссв4539100 0.0 10112059
18:00+12ссв354616 0.0 10112130
21:00+6ссв226962 0.0 101214